| time (UTC) | temp F | wind direction | speed knots | gust knots | rain 1hr in | rain 24hr in | rain mn in | humidity % | barometer mb |
| 20260504044536 | 50 | 25 | 28.7 | 38.2 | 0.00 | 0.00 | 0.00 | 42 | 1000.5 |
| 20260504043044 | 50 | 21 | 28.7 | 37.4 | 0.00 | 0.00 | 0.00 | 44 | 1000.3 |
| 20260504041534 | 53 | 344 | 20.9 | 36.5 | 0.00 | 0.00 | 0.00 | 43 | 1000.4 |
| 20260504040029 | 55 | 355 | 17.4 | 23.5 | 0.00 | 0.00 | 0.00 | 41 | 999.9 |
| 20260504034529 | 55 | 11 | 17.4 | 22.6 | 0.00 | 0.00 | 0.00 | 39 | 999.6 |
| 20260504033029 | 55 | 335 | 19.1 | 26.9 | 0.00 | 0.00 | 0.00 | 38 | 999.4 |
| 20260504031528 | 56 | 18 | 18.2 | 26.1 | 0.00 | 0.00 | 0.00 | 39 | 999.2 |
| 20260504030034 | 56 | 21 | 17.4 | 25.2 | 0.00 | 0.00 | 0.00 | 39 | 999.1 |
| 20260504024528 | 57 | 9 | 15.6 | 21.7 | 0.00 | 0.00 | 0.00 | 39 | 999.0 |
| 20260504023026 | 58 | 23 | 17.4 | 25.2 | 0.00 | 0.00 | 0.00 | 39 | 999.0 |
| 20260504021524 | 60 | 34 | 20.9 | 25.2 | 0.00 | 0.00 | 0.00 | 36 | 999.0 |
| 20260504020034 | 62 | 17 | 11.3 | 18.2 | 0.00 | 0.00 | 0.00 | 31 | 999.0 |
| 20260504014522 | 63 | 360 | 8.7 | 12.2 | 0.00 | 0.00 | 0.00 | 29 | 999.1 |
| 20260504013025 | 64 | 341 | 10.4 | 15.6 | 0.00 | 0.00 | 0.00 | 25 | 999.2 |
| 20260504011522 | 66 | 338 | 14.8 | 19.1 | 0.00 | 0.00 | 0.00 | 23 | 999.1 |
| 20260504010021 | 67 | 360 | 11.3 | 18.2 | 0.00 | 0.00 | 0.00 | 22 | 999.2 |
| 20260504004534 | 67 | 320 | 13.0 | 20.9 | 0.00 | 0.00 | 0.00 | 23 | 999.3 |
| 20260504003018 | 67 | 344 | 13.9 | 20.9 | 0.00 | 0.00 | 0.00 | 22 | 999.3 |
| 20260504001529 | 67 | 324 | 10.4 | 18.2 | 0.00 | 0.00 | 0.00 | 22 | 999.4 |
| 20260504000014 | 67 | 322 | 18.2 | 26.1 | 0.00 | 0.00 | 0.00 | 23 | 999.7 |
| 20260503234518 | 68 | 360 | 13.9 | 22.6 | 0.00 | 0.00 | 0.00 | 22 | 999.6 |
| 20260503233013 | 68 | 312 | 17.4 | 20.9 | 0.00 | 0.00 | 0.00 | 23 | 999.7 |
| 20260503231513 | 68 | 341 | 15.6 | 21.7 | 0.00 | 0.00 | 0.00 | 23 | 999.9 |
| 20260503230010 | 67 | 322 | 13.9 | 24.3 | 0.00 | 0.00 | 0.00 | 22 | 1000.1 |
| 20260503224508 | 67 | 355 | 18.2 | 26.1 | 0.00 | 0.00 | 0.00 | 22 | 1000.1 |
| 20260503223009 | 67 | 338 | 19.1 | 25.2 | 0.00 | 0.00 | 0.00 | 22 | 1000.1 |
| 20260503221505 | 68 | 317 | 15.6 | 22.6 | 0.00 | 0.00 | 0.00 | 23 | 1000.4 |
| 20260503220016 | 67 | 329 | 19.1 | 24.3 | 0.00 | 0.00 | 0.00 | 23 | 1000.5 |
| 20260503214510 | 67 | 346 | 14.8 | 26.9 | 0.00 | 0.00 | 0.00 | 23 | 1000.7 |
| 20260503213002 | 67 | 325 | 13.9 | 24.3 | 0.00 | 0.00 | 0.00 | 24 | 1001.2 |
| 20260503211602 | 67 | 337 | 13.9 | 20.0 | 0.00 | 0.00 | 0.00 | 24 | 1001.2 |
| 20260503210057 | 66 | 340 | 13.9 | 20.9 | 0.00 | 0.00 | 0.00 | 23 | 1001.5 |
| 20260503204555 | 66 | 342 | 15.6 | 29.5 | 0.00 | 0.00 | 0.00 | 23 | 1001.8 |
| 20260503203057 | 65 | 311 | 14.8 | 20.0 | 0.00 | 0.00 | 0.00 | 24 | 1001.9 |
| 20260503201552 | 64 | 313 | 11.3 | 26.1 | 0.00 | 0.00 | 0.00 | 25 | 1002.1 |
| 20260503200052 | 64 | 305 | 13.9 | 22.6 | 0.00 | 0.00 | 0.00 | 24 | 1002.4 |
| 20260503194558 | 64 | 331 | 19.1 | 25.2 | 0.00 | 0.00 | 0.00 | 26 | 1002.9 |
| 20260503193044 | 64 | 320 | 16.5 | 24.3 | 0.00 | 0.00 | 0.00 | 26 | 1002.9 |
| 20260503191542 | 64 | 319 | 12.2 | 26.9 | 0.00 | 0.00 | 0.00 | 27 | 1003.2 |
| 20260503190045 | 63 | 291 | 15.6 | 21.7 | 0.00 | 0.00 | 0.00 | 28 | 1003.3 |
| 20260503184542 | 62 | 295 | 12.2 | 21.7 | 0.00 | 0.00 | 0.00 | 29 | 1003.5 |
| 20260503183042 | 62 | 342 | 8.7 | 19.1 | 0.00 | 0.00 | 0.00 | 30 | 1003.7 |
| 20260503181554 | 62 | 336 | 13.9 | 18.2 | 0.00 | 0.00 | 0.00 | 27 | 1003.7 |
| 20260503180138 | 61 | 347 | 9.6 | 17.4 | 0.00 | 0.00 | 0.00 | 30 | 1003.9 |
| 20260503174532 | 62 | 13 | 11.3 | 19.1 | 0.00 | 0.00 | 0.00 | 28 | 1004.2 |
| 20260503173031 | 61 | 331 | 13.9 | 18.2 | 0.00 | 0.00 | 0.00 | 28 | 1004.4 |
| 20260503171530 | 60 | 355 | 14.8 | 22.6 | 0.00 | 0.00 | 0.00 | 29 | 1004.5 |
| 20260503081527 | 48 | 140 | 2.6 | 6.1 | 0.00 | 0.00 | 0.00 | 64 | 1007.0 |
| 20260503071525 | 47 | 106 | 3.5 | 5.2 | 0.00 | 0.00 | 0.00 | 64 | 1007.1 |